Current Weather Conditions: station 64041

sailwx.info

Wind from 260 at 28 knots

Wave height 5.9 meters (19 feet), 9 second period

Visibility: greater than 10.8 NM

Last reported at 2020-Jan-24 10:00 UTC.
Time now 2020-Jan-24 11:23 UTC

Location: N 60°36' W 002°30'.
View on Google Maps.

See reports from other nearby stations

  
Tides and Currents Weather Stations Pressure Air Temp Water Temp Dewpoint Dewpoint Depression Visibility Wind Speed Wind Dir Waves Ship Positions
date/time (UTC)wind fromknots sea level pressurealtimeterstation pressurevisibilityair tempwater tempwave heightnotes
2020-Jan-24 10:00 260 28 10.8 5.9
2020-Jan-24 09:00 270 24 10.8 5.4
2020-Jan-24 08:00 270 27 5.4 5.5
2020-Jan-24 07:00 270 27 10.8 5.8
2020-Jan-24 06:00 260 29 10.8 5.8
2020-Jan-24 05:00 260 27 10.8 5.7
2020-Jan-24 04:00 260 28 10.8 5.3
2020-Jan-24 03:00 260 28 10.8 5.2
2020-Jan-24 02:00 260 27 10.8 5.3
2020-Jan-24 01:00 250 28 27.0 5.3
2020-Jan-24 00:00 250 28 27.0 5.2
2020-Jan-23 23:00 260 26 10.8 4.6
2020-Jan-23 22:00 260 26 27.0 4.9
2020-Jan-23 21:00 270 28 10.8 5.0
2020-Jan-23 20:00 260 32 27.0 4.6
2020-Jan-23 19:00 260 27 10.8 4.9
2020-Jan-23 18:00 270 26 10.8 4.5
2020-Jan-23 17:00 260 22 10.8 4.4
2020-Jan-23 16:00 260 24 10.8 4.7
2020-Jan-23 15:00 260 25 27.0 4.6
2020-Jan-23 14:00 250 27 10.8 4.5
2020-Jan-23 13:00 270 25 10.8 4.3
2020-Jan-23 12:00 250 27 10.8 4.2
2020-Jan-23 11:00 250 31 10.8 4.4
2020-Jan-23 10:00 270 24 2.2 4.5
2020-Jan-23 09:00 240 31 5.4 4.7
2020-Jan-23 08:00 240 34 10.8 4.2
2020-Jan-23 07:00 240 34 2.2 4.4
2020-Jan-23 06:00 230 33 5.4 4.1
2020-Jan-23 05:00 230 31 5.4 4.6
2020-Jan-23 04:00 230 33 5.4 4.0
2020-Jan-23 03:00 230 33 5.4 3.8
2020-Jan-23 02:00 230 31 5.4 3.8
2020-Jan-23 01:00 230 28 5.4 3.3
2020-Jan-23 00:00 240 27 5.4 3.4
2020-Jan-22 23:00 240 28 10.8 3.1
2020-Jan-22 22:00 240 27 10.8 3.2
2020-Jan-22 21:00 240 27 27.0 2.9
2020-Jan-22 20:00 240 27 10.8 2.8
2020-Jan-22 19:00 240 26 10.8 2.6
2020-Jan-22 18:00 230 22 10.8 2.7
2020-Jan-22 17:00 230 21 10.8 2.8
2020-Jan-22 16:00 240 19 10.8 2.8
2020-Jan-22 15:00 230 19 10.8 2.8
2020-Jan-22 14:00 240 15 27.0 3.0
2020-Jan-22 13:00 240 18 27.0 2.8
2020-Jan-22 12:00 210 14 0.5 3.0
2020-Jan-22 11:00 190 15 5.4 2.9